Time,TemperatureF,DewpointF,PressureIn,WindDirection,WindDirectionDegrees,WindSpeedMPH,WindSpeedGustMPH,Humidity,HourlyPrecipIn,Conditions,Clouds,dailyrainin,SoftwareType,DateUTC
2013-04-22 00:00:00,52.5,51.1,29.88,WNW,290,0.0,0.0,95,0.00,,,0.00,Wunderground v.1.15,2013-04-21 14:00:00,
2013-04-22 00:05:00,52.5,51.1,29.88,WNW,290,0.0,0.0,95,0.00,,,0.00,Wunderground v.1.15,2013-04-21 14:05:00,
2013-04-22 00:10:00,52.5,51.1,29.88,North,-999,0.0,0.0,95,0.00,,,-99.99,WeatherLink 5.9.3,2013-04-21 14:10:00,
2013-04-22 00:16:00,52.5,51.1,29.89,WNW,290,0.0,0.0,95,0.00,,,0.00,Wunderground v.1.15,2013-04-21 14:16:00,
2013-04-22 00:21:00,52.6,51.2,29.89,WNW,290,0.0,0.0,95,0.00,,,0.00,Wunderground v.1.15,2013-04-21 14:21:00,
2013-04-22 00:27:00,52.6,51.2,29.88,WNW,290,0.0,0.0,95,0.00,,,0.00,Wunderground v.1.15,2013-04-21 14:27:00,
2013-04-22 00:33:00,52.6,51.2,29.88,WNW,290,0.0,0.0,95,0.00,,,0.00,Wunderground v.1.15,2013-04-21 14:33:00,
2013-04-22 00:38:00,52.6,51.2,29.88,WNW,290,0.0,0.0,95,0.00,,,0.00,Wunderground v.1.15,2013-04-21 14:38:00,
2013-04-22 00:44:00,52.8,51.7,29.88,WNW,290,0.0,0.0,96,0.00,,,0.00,Wunderground v.1.15,2013-04-21 14:44:00,
2013-04-22 00:49:00,52.8,51.4,29.88,WNW,290,0.0,0.0,95,0.00,,,0.00,Wunderground v.1.15,2013-04-21 14:49:00,
2013-04-22 00:55:00,52.8,51.4,29.88,WNW,290,0.0,0.0,95,0.00,,,0.00,Wunderground v.1.15,2013-04-21 14:55:00,
2013-04-22 01:00:00,52.8,51.4,29.88,North,-999,0.0,0.0,95,0.00,,,-99.99,WeatherLink 5.9.3,2013-04-21 15:00:00,
2013-04-22 01:06:00,52.9,51.5,29.88,SW,221,0.0,0.0,95,0.00,,,0.00,Wunderground v.1.15,2013-04-21 15:06:00,
2013-04-22 01:12:00,52.9,51.5,29.88,SW,221,0.0,0.0,95,0.00,,,0.00,Wunderground v.1.15,2013-04-21 15:12:00,
2013-04-22 01:17:00,52.8,51.4,29.88,SW,221,0.0,0.0,95,0.00,,,0.00,Wunderground v.1.15,2013-04-21 15:17:00,
2013-04-22 01:23:00,52.7,51.3,29.87,SW,221,0.0,0.0,95,0.00,,,0.00,Wunderground v.1.15,2013-04-21 15:23:00,
2013-04-22 01:29:00,52.7,51.3,29.87,SW,221,0.0,0.0,95,0.00,,,0.00,Wunderground v.1.15,2013-04-21 15:29:00,
2013-04-22 01:35:00,52.6,51.2,29.87,SW,220,0.0,0.0,95,0.00,,,0.00,Wunderground v.1.15,2013-04-21 15:35:00,
2013-04-22 01:40:00,52.7,51.3,29.87,North,-999,0.0,0.0,95,0.00,,,-99.99,WeatherLink 5.9.3,2013-04-21 15:40:00,
2013-04-22 01:46:00,52.8,51.4,29.86,SSE,148,0.0,0.0,95,0.00,,,0.00,Wunderground v.1.15,2013-04-21 15:46:00,
2013-04-22 01:52:00,52.8,51.7,29.84,SSE,160,0.0,0.0,96,0.00,,,0.00,Wunderground v.1.15,2013-04-21 15:52:00,
2013-04-22 01:57:00,53.0,51.9,29.84,SSE,160,0.0,0.0,96,0.00,,,0.00,Wunderground v.1.15,2013-04-21 15:57:00,
2013-04-22 02:02:00,53.0,51.9,29.84,SSE,160,0.0,0.0,96,0.00,,,0.00,Wunderground v.1.15,2013-04-21 16:02:00,
2013-04-22 02:07:00,53.1,52.0,29.83,SSE,160,0.0,0.0,96,0.00,,,0.00,Wunderground v.1.15,2013-04-21 16:07:00,
2013-04-22 02:12:00,53.2,52.1,29.83,SSE,160,0.0,0.0,96,0.00,,,0.00,Wunderground v.1.15,2013-04-21 16:12:00,
2013-04-22 02:17:00,53.2,52.1,29.84,SSE,160,0.0,0.0,96,0.00,,,0.00,Wunderground v.1.15,2013-04-21 16:17:00,
2013-04-22 02:22:00,53.4,52.3,29.84,West,278,0.0,0.0,96,0.00,,,0.00,Wunderground v.1.15,2013-04-21 16:22:00,
2013-04-22 02:27:00,53.4,52.0,29.84,NNE,20,0.0,0.0,95,0.00,,,0.00,Wunderground v.1.15,2013-04-21 16:27:00,
2013-04-22 02:32:00,53.4,52.0,29.84,NNE,20,0.0,0.0,95,0.00,,,0.00,Wunderground v.1.15,2013-04-21 16:32:00,
2013-04-22 02:37:00,53.4,52.0,29.84,NNE,20,0.0,0.0,95,0.00,,,0.00,Wunderground v.1.15,2013-04-21 16:37:00,
2013-04-22 02:42:00,53.4,52.0,29.84,NNE,20,0.0,0.0,95,0.00,,,0.00,Wunderground v.1.15,2013-04-21 16:42:00,
2013-04-22 02:47:00,53.4,52.0,29.83,NNE,20,0.0,0.0,95,0.00,,,0.00,Wunderground v.1.15,2013-04-21 16:47:00,
2013-04-22 02:52:00,53.4,52.0,29.83,NE,56,0.0,0.0,95,0.00,,,0.00,Wunderground v.1.15,2013-04-21 16:52:00,
2013-04-22 02:57:00,53.4,52.0,29.83,NE,55,0.0,0.0,95,0.00,,,0.00,Wunderground v.1.15,2013-04-21 16:57:00,
2013-04-22 03:02:00,53.4,52.0,29.83,NE,56,0.0,0.0,95,0.00,,,0.00,Wunderground v.1.15,2013-04-21 17:02:00,
2013-04-22 03:07:00,53.4,52.0,29.83,NE,55,0.0,0.0,95,0.00,,,0.00,Wunderground v.1.15,2013-04-21 17:07:00,
2013-04-22 03:13:00,53.3,51.9,29.83,NE,56,0.0,0.0,95,0.00,,,0.00,Wunderground v.1.15,2013-04-21 17:13:00,
2013-04-22 03:18:00,53.3,51.9,29.83,NE,56,0.0,0.0,95,0.00,,,0.00,Wunderground v.1.15,2013-04-21 17:18:00,
2013-04-22 03:23:00,53.3,51.9,29.83,NE,55,0.0,0.0,95,0.00,,,0.00,Wunderground v.1.15,2013-04-21 17:23:00,
2013-04-22 03:28:00,53.3,51.9,29.82,NE,56,0.0,0.0,95,0.00,,,0.00,Wunderground v.1.15,2013-04-21 17:28:00,
2013-04-22 03:33:00,53.3,51.9,29.82,NE,56,0.0,0.0,95,0.00,,,0.00,Wunderground v.1.15,2013-04-21 17:33:00,
2013-04-22 03:38:00,53.3,51.9,29.82,NE,56,0.0,0.0,95,0.00,,,0.00,Wunderground v.1.15,2013-04-21 17:38:00,
2013-04-22 03:43:00,53.2,51.8,29.82,NE,55,0.0,0.0,95,0.00,,,0.00,Wunderground v.1.15,2013-04-21 17:43:00,
2013-04-22 03:48:00,53.2,51.8,29.82,NE,56,0.0,0.0,95,0.00,,,0.00,Wunderground v.1.15,2013-04-21 17:48:00,
2013-04-22 03:53:00,53.1,51.7,29.82,NE,55,0.0,0.0,95,0.00,,,0.00,Wunderground v.1.15,2013-04-21 17:53:00,
2013-04-22 03:58:00,53.1,51.7,29.82,NE,55,0.0,0.0,95,0.00,,,0.00,Wunderground v.1.15,2013-04-21 17:58:00,
2013-04-22 04:03:00,53.1,51.7,29.82,NE,55,0.0,0.0,95,0.00,,,0.00,Wunderground v.1.15,2013-04-21 18:03:00,
2013-04-22 04:08:00,53.1,51.7,29.82,NE,56,0.0,0.0,95,0.00,,,0.00,Wunderground v.1.15,2013-04-21 18:08:00,
2013-04-22 04:13:00,53.0,51.6,29.82,NE,56,0.0,0.0,95,0.00,,,0.00,Wunderground v.1.15,2013-04-21 18:13:00,
2013-04-22 04:18:00,53.0,51.6,29.82,NE,56,0.0,0.0,95,0.00,,,0.00,Wunderground v.1.15,2013-04-21 18:18:00,
2013-04-22 04:23:00,53.1,51.7,29.83,NE,56,0.0,0.0,95,0.00,,,0.00,Wunderground v.1.15,2013-04-21 18:23:00,
2013-04-22 04:28:00,53.2,52.1,29.84,North,351,0.0,0.0,96,0.00,,,0.00,Wunderground v.1.15,2013-04-21 18:28:00,
2013-04-22 04:33:00,53.3,52.2,29.84,NW,313,0.0,0.0,96,0.00,,,0.00,Wunderground v.1.15,2013-04-21 18:33:00,
2013-04-22 04:38:00,53.4,52.3,29.84,NW,313,0.0,0.0,96,0.00,,,0.00,Wunderground v.1.15,2013-04-21 18:38:00,
2013-04-22 04:43:00,53.5,52.1,29.85,NW,313,0.0,0.0,95,0.00,,,0.00,Wunderground v.1.15,2013-04-21 18:43:00,
2013-04-22 04:48:00,53.5,52.1,29.85,NW,313,0.0,0.0,95,0.00,,,0.00,Wunderground v.1.15,2013-04-21 18:48:00,
2013-04-22 04:53:00,53.6,52.2,29.84,NW,316,0.0,0.0,95,0.00,,,0.00,Wunderground v.1.15,2013-04-21 18:53:00,
2013-04-22 04:58:00,53.6,52.2,29.84,NW,317,0.0,0.0,95,0.00,,,0.00,Wunderground v.1.15,2013-04-21 18:58:00,
2013-04-22 05:03:00,53.7,52.3,29.84,SSW,195,0.0,0.0,95,0.00,,,0.00,Wunderground v.1.15,2013-04-21 19:03:00,
2013-04-22 05:08:00,53.7,52.3,29.84,NE,46,0.0,0.0,95,0.00,,,0.00,Wunderground v.1.15,2013-04-21 19:08:00,
2013-04-22 05:13:00,53.8,52.4,29.84,SSE,161,0.0,0.0,95,0.00,,,0.00,Wunderground v.1.15,2013-04-21 19:13:00,
2013-04-22 05:18:00,53.9,52.5,29.84,SSE,161,0.0,0.0,95,0.00,,,0.00,Wunderground v.1.15,2013-04-21 19:18:00,
2013-04-22 05:23:00,53.9,52.5,29.84,South,177,0.0,0.0,95,0.00,,,0.00,Wunderground v.1.15,2013-04-21 19:23:00,
2013-04-22 05:28:00,54.0,52.6,29.84,South,179,0.0,0.0,95,0.00,,,0.00,Wunderground v.1.15,2013-04-21 19:28:00,
2013-04-22 05:33:00,54.1,52.7,29.85,WNW,285,0.0,0.0,95,0.00,,,0.00,Wunderground v.1.15,2013-04-21 19:33:00,
2013-04-22 05:38:00,54.1,52.7,29.85,WNW,283,0.0,0.0,95,0.00,,,0.00,Wunderground v.1.15,2013-04-21 19:38:00,
2013-04-22 05:43:00,54.1,52.7,29.86,WNW,284,0.0,0.0,95,0.00,,,0.00,Wunderground v.1.15,2013-04-21 19:43:00,
2013-04-22 05:48:00,54.2,52.8,29.86,NW,309,0.0,0.0,95,0.00,,,0.00,Wunderground v.1.15,2013-04-21 19:48:00,
2013-04-22 05:54:00,54.2,52.8,29.86,East,96,0.0,0.0,95,0.00,,,0.00,Wunderground v.1.15,2013-04-21 19:54:00,
2013-04-22 05:59:00,54.3,52.9,29.86,NW,308,0.0,0.0,95,0.00,,,0.00,Wunderground v.1.15,2013-04-21 19:59:00,
2013-04-22 06:04:00,54.3,52.9,29.86,WNW,302,0.0,0.0,95,0.00,,,0.00,Wunderground v.1.15,2013-04-21 20:04:00,
2013-04-22 06:09:00,54.4,53.0,29.87,WNW,302,0.0,0.0,95,0.00,,,0.00,Wunderground v.1.15,2013-04-21 20:09:00,
2013-04-22 06:14:00,54.4,53.0,29.87,North,1,0.0,0.0,95,0.00,,,0.01,Wunderground v.1.15,2013-04-21 20:14:00,
2013-04-22 06:19:00,54.4,53.0,29.86,North,1,0.0,0.0,95,0.00,,,0.01,Wunderground v.1.15,2013-04-21 20:19:00,
2013-04-22 06:24:00,54.4,53.0,29.86,SE,145,0.0,0.0,95,0.00,,,0.01,Wunderground v.1.15,2013-04-21 20:24:00,
2013-04-22 06:29:00,54.4,53.0,29.86,ENE,62,0.0,0.0,95,0.00,,,0.01,Wunderground v.1.15,2013-04-21 20:29:00,
2013-04-22 06:34:00,54.5,53.1,29.86,ENE,62,0.0,0.0,95,0.00,,,0.01,Wunderground v.1.15,2013-04-21 20:34:00,
2013-04-22 06:39:00,54.5,53.1,29.86,ENE,57,0.0,0.0,95,0.00,,,0.01,Wunderground v.1.15,2013-04-21 20:39:00,
2013-04-22 06:44:00,54.5,53.1,29.86,ENE,57,0.0,0.0,95,0.00,,,0.01,Wunderground v.1.15,2013-04-21 20:44:00,
2013-04-22 06:49:00,54.5,53.1,29.86,NNE,17,0.0,0.0,95,0.00,,,0.01,Wunderground v.1.15,2013-04-21 20:49:00,
2013-04-22 06:55:00,54.6,53.2,29.87,NNE,20,0.0,0.0,95,0.00,,,0.01,Wunderground v.1.15,2013-04-21 20:55:00,
2013-04-22 07:00:00,54.5,53.1,29.87,NNE,20,0.0,0.0,95,0.00,,,0.01,Wunderground v.1.15,2013-04-21 21:00:00,
2013-04-22 07:05:00,54.6,53.2,29.86,NNE,20,0.0,0.0,95,0.00,,,0.01,Wunderground v.1.15,2013-04-21 21:05:00,
2013-04-22 07:10:00,54.6,53.2,29.87,NNE,20,0.0,0.0,95,0.00,,,0.01,Wunderground v.1.15,2013-04-21 21:10:00,
2013-04-22 07:15:00,54.7,53.6,29.87,NNE,20,0.0,0.0,96,0.00,,,0.01,Wunderground v.1.15,2013-04-21 21:15:00,
2013-04-22 07:20:00,54.8,53.7,29.87,NNE,20,0.0,0.0,96,0.00,,,0.01,Wunderground v.1.15,2013-04-21 21:20:00,
2013-04-22 07:25:00,54.9,53.8,29.87,NNE,20,0.0,0.0,96,0.00,,,0.01,Wunderground v.1.15,2013-04-21 21:25:00,
2013-04-22 07:30:00,54.9,53.8,29.87,NW,314,0.0,0.0,96,0.00,,,0.01,Wunderground v.1.15,2013-04-21 21:30:00,
2013-04-22 07:35:00,54.8,53.4,29.87,NW,314,0.0,0.0,95,0.00,,,0.01,Wunderground v.1.15,2013-04-21 21:35:00,
2013-04-22 07:40:00,54.9,53.5,29.87,NW,314,0.0,0.0,95,0.00,,,0.01,Wunderground v.1.15,2013-04-21 21:40:00,
2013-04-22 07:45:00,54.9,53.8,29.88,NW,314,0.0,0.0,96,0.00,,,0.01,Wunderground v.1.15,2013-04-21 21:45:00,
2013-04-22 07:50:00,54.9,53.8,29.88,North,-999,0.0,0.0,96,0.00,,,-99.99,WeatherLink 5.9.3,2013-04-21 21:50:00,
2013-04-22 07:55:00,55.1,54.0,29.89,WSW,257,0.0,0.0,96,0.00,,,0.01,Wunderground v.1.15,2013-04-21 21:55:00,
2013-04-22 08:00:00,55.2,54.1,29.89,WSW,257,0.0,0.0,96,0.00,,,0.02,Wunderground v.1.15,2013-04-21 22:00:00,
2013-04-22 08:05:00,55.4,54.3,29.89,WSW,257,0.0,0.0,96,0.00,,,0.02,Wunderground v.1.15,2013-04-21 22:05:00,
2013-04-22 08:10:00,55.5,54.4,29.89,WSW,258,0.0,0.0,96,0.00,,,0.02,Wunderground v.1.15,2013-04-21 22:10:00,
2013-04-22 08:15:00,55.8,54.7,29.89,NNE,25,0.0,0.0,96,0.00,,,0.02,Wunderground v.1.15,2013-04-21 22:15:00,
2013-04-22 08:20:00,55.8,54.4,29.89,NE,41,0.0,0.0,95,0.00,,,0.02,Wunderground v.1.15,2013-04-21 22:20:00,
2013-04-22 08:25:00,55.7,54.3,29.89,NNE,27,0.0,0.0,95,0.00,,,0.02,Wunderground v.1.15,2013-04-21 22:25:00,
2013-04-22 08:31:00,55.7,54.3,29.89,North,-999,0.0,0.0,95,0.01,,,-99.99,WeatherLink 5.9.3,2013-04-21 22:31:00,
2013-04-22 08:36:00,55.9,54.5,29.89,NNE,20,0.0,0.0,95,0.00,,,0.02,Wunderground v.1.15,2013-04-21 22:36:00,
2013-04-22 08:41:00,55.8,54.4,29.89,North,-999,0.0,0.0,95,0.01,,,-99.99,WeatherLink 5.9.3,2013-04-21 22:41:00,
2013-04-22 08:46:00,56.5,55.1,29.88,NNE,18,0.0,0.0,95,0.00,,,0.02,Wunderground v.1.15,2013-04-21 22:46:00,
2013-04-22 08:51:00,56.7,55.3,29.88,NNE,19,0.0,0.0,95,0.00,,,0.02,Wunderground v.1.15,2013-04-21 22:51:00,
2013-04-22 08:56:00,57.0,55.3,29.88,NNE,23,0.0,0.0,94,0.00,,,0.02,Wunderground v.1.15,2013-04-21 22:56:00,
2013-04-22 09:01:00,57.1,55.4,29.88,NNE,26,0.0,0.0,94,0.00,,,0.02,Wunderground v.1.15,2013-04-21 23:01:00,
2013-04-22 09:06:00,57.3,55.3,29.88,NE,52,0.0,0.0,93,0.00,,,0.02,Wunderground v.1.15,2013-04-21 23:06:00,
2013-04-22 09:11:00,57.4,55.1,29.88,NNE,32,0.0,0.0,92,0.00,,,0.02,Wunderground v.1.15,2013-04-21 23:11:00,
2013-04-22 09:17:00,57.8,55.5,29.88,West,264,0.0,0.0,92,0.00,,,0.02,Wunderground v.1.15,2013-04-21 23:17:00,
2013-04-22 09:22:00,58.3,55.7,29.88,West,264,0.0,0.0,91,0.00,,,0.02,Wunderground v.1.15,2013-04-21 23:22:00,
2013-04-22 09:27:00,58.7,56.1,29.88,West,264,0.0,0.0,91,0.00,,,0.02,Wunderground v.1.15,2013-04-21 23:27:00,
2013-04-22 09:32:00,59.1,56.2,29.88,West,265,0.0,0.0,90,0.00,,,0.02,Wunderground v.1.15,2013-04-21 23:32:00,
2013-04-22 09:37:00,59.5,56.3,29.87,North,356,0.0,0.0,89,0.00,,,0.02,Wunderground v.1.15,2013-04-21 23:37:00,
2013-04-22 09:42:00,60.0,56.4,29.87,West,274,0.0,0.0,88,0.00,,,0.02,Wunderground v.1.15,2013-04-21 23:42:00,
2013-04-22 09:47:00,60.7,56.8,29.87,NNE,25,0.0,0.0,87,0.00,,,0.02,Wunderground v.1.15,2013-04-21 23:47:00,
2013-04-22 09:52:00,61.3,56.8,29.87,NNE,21,0.0,0.0,85,0.00,,,0.02,Wunderground v.1.15,2013-04-21 23:52:00,
2013-04-22 09:57:00,61.9,57.3,29.86,NE,47,0.0,0.0,85,0.00,,,0.02,Wunderground v.1.15,2013-04-21 23:57:00,
2013-04-22 10:02:00,63.0,57.1,29.86,North,350,0.0,0.0,81,0.00,,,0.02,Wunderground v.1.15,2013-04-22 00:02:00,
2013-04-22 10:07:00,63.5,57.2,29.86,WNW,294,0.0,0.0,80,0.00,,,0.02,Wunderground v.1.15,2013-04-22 00:07:00,
2013-04-22 10:12:00,64.0,57.7,29.86,NW,318,0.0,0.0,80,0.00,,,0.02,Wunderground v.1.15,2013-04-22 00:12:00,
2013-04-22 10:17:00,64.6,56.5,29.86,North,356,2.0,2.0,75,0.00,,,0.02,Wunderground v.1.15,2013-04-22 00:17:00,
2013-04-22 10:22:00,64.9,57.2,29.86,NNE,23,0.0,1.0,76,0.00,,,0.02,Wunderground v.1.15,2013-04-22 00:22:00,
2013-04-22 10:27:00,65.0,56.9,29.85,WNW,302,1.0,4.0,75,0.00,,,0.02,Wunderground v.1.15,2013-04-22 00:27:00,
2013-04-22 10:32:00,64.9,56.0,29.85,NE,46,2.0,2.0,73,0.00,,,0.02,Wunderground v.1.15,2013-04-22 00:32:00,
2013-04-22 10:37:00,65.1,56.6,29.85,NNW,333,0.0,3.0,74,0.00,,,0.02,Wunderground v.1.15,2013-04-22 00:37:00,
2013-04-22 10:42:00,65.7,56.0,29.85,NNE,25,1.0,3.0,71,0.00,,,0.02,Wunderground v.1.15,2013-04-22 00:42:00,
2013-04-22 10:48:00,66.2,56.1,29.84,NNE,16,1.0,3.0,70,0.00,,,0.02,Wunderground v.1.15,2013-04-22 00:48:00,
2013-04-22 10:53:00,66.6,56.5,29.84,NNW,327,0.0,2.0,70,0.00,,,0.02,Wunderground v.1.15,2013-04-22 00:53:00,
2013-04-22 10:58:00,67.1,55.8,29.84,WSW,250,0.0,3.0,67,0.00,,,0.02,Wunderground v.1.15,2013-04-22 00:58:00,
2013-04-22 11:03:00,67.5,56.6,29.83,NW,305,1.0,3.0,68,0.00,,,0.02,Wunderground v.1.15,2013-04-22 01:03:00,
2013-04-22 11:08:00,68.2,56.4,29.83,NE,45,4.0,4.0,66,0.00,,,0.02,Wunderground v.1.15,2013-04-22 01:08:00,
2013-04-22 11:14:00,68.5,55.0,29.83,NNE,20,3.0,5.0,62,0.00,,,0.02,Wunderground v.1.15,2013-04-22 01:14:00,
2013-04-22 11:19:00,68.8,54.3,29.82,NNW,328,2.0,7.0,60,0.00,,,0.02,Wunderground v.1.15,2013-04-22 01:19:00,
2013-04-22 11:24:00,69.0,54.5,29.82,NNE,23,1.0,5.0,60,0.00,,,0.02,Wunderground v.1.15,2013-04-22 01:24:00,
2013-04-22 11:29:00,69.4,55.4,29.82,NNW,345,1.0,5.0,61,0.00,,,0.02,Wunderground v.1.15,2013-04-22 01:29:00,
2013-04-22 11:34:00,70.0,55.5,29.81,ENE,66,0.0,4.0,60,0.00,,,0.02,Wunderground v.1.15,2013-04-22 01:34:00,
2013-04-22 11:39:00,70.3,56.2,29.81,WSW,241,0.0,5.0,61,0.00,,,0.02,Wunderground v.1.15,2013-04-22 01:39:00,
2013-04-22 11:44:00,70.7,56.1,29.81,WNW,288,5.0,6.0,60,0.00,,,0.02,Wunderground v.1.15,2013-04-22 01:44:00,
2013-04-22 11:49:00,70.8,54.8,29.80,West,264,1.0,7.0,57,0.00,,,0.02,Wunderground v.1.15,2013-04-22 01:49:00,
2013-04-22 11:54:00,70.9,55.4,29.80,WNW,298,0.0,5.0,58,0.00,,,0.02,Wunderground v.1.15,2013-04-22 01:54:00,
2013-04-22 11:59:00,71.4,55.4,29.80,NNW,335,1.0,5.0,57,0.00,,,0.02,Wunderground v.1.15,2013-04-22 01:59:00,
2013-04-22 12:04:00,71.6,55.1,29.80,North,350,1.0,4.0,56,0.00,,,0.02,Wunderground v.1.15,2013-04-22 02:04:00,
2013-04-22 12:09:00,71.6,56.0,29.79,North,349,1.0,7.0,58,0.00,,,0.02,Wunderground v.1.15,2013-04-22 02:09:00,
2013-04-22 12:14:00,71.8,54.8,29.79,North,349,0.0,4.0,55,0.00,,,0.02,Wunderground v.1.15,2013-04-22 02:14:00,
2013-04-22 12:19:00,72.4,54.3,29.79,WNW,297,3.0,8.0,53,0.00,,,0.02,Wunderground v.1.15,2013-04-22 02:19:00,
2013-04-22 12:24:00,72.6,55.0,29.79,WSW,253,3.0,3.0,54,0.00,,,0.02,Wunderground v.1.15,2013-04-22 02:24:00,
2013-04-22 12:29:00,73.1,56.0,29.79,NW,308,2.0,6.0,55,0.00,,,0.02,Wunderground v.1.15,2013-04-22 02:29:00,
2013-04-22 12:34:00,73.3,54.1,29.78,NW,313,0.0,5.0,51,0.00,,,0.02,Wunderground v.1.15,2013-04-22 02:34:00,
2013-04-22 12:39:00,73.5,54.8,29.78,WSW,251,5.0,5.0,52,0.00,,,0.02,Wunderground v.1.15,2013-04-22 02:39:00,
2013-04-22 12:44:00,73.7,54.4,29.78,NW,309,2.0,4.0,51,0.00,,,0.02,Wunderground v.1.15,2013-04-22 02:44:00,
2013-04-22 12:49:00,74.0,55.3,29.78,WNW,302,3.0,4.0,52,0.00,,,0.02,Wunderground v.1.15,2013-04-22 02:49:00,
2013-04-22 12:54:00,74.0,54.7,29.77,WNW,295,0.0,3.0,51,0.00,,,0.02,Wunderground v.1.15,2013-04-22 02:54:00,
2013-04-22 12:59:00,74.4,54.0,29.77,ENE,59,1.0,3.0,49,0.00,,,0.02,Wunderground v.1.15,2013-04-22 02:59:00,
2013-04-22 13:04:00,74.4,54.0,29.77,NW,309,1.0,2.0,49,0.00,,,0.02,Wunderground v.1.15,2013-04-22 03:04:00,
2013-04-22 13:09:00,74.3,53.9,29.76,WNW,285,6.0,7.0,49,0.00,,,0.02,Wunderground v.1.15,2013-04-22 03:09:00,
2013-04-22 13:14:00,74.5,54.6,29.76,NW,319,0.0,4.0,50,0.00,,,0.02,Wunderground v.1.15,2013-04-22 03:14:00,
2013-04-22 13:19:00,74.9,54.4,29.76,NNW,342,1.0,4.0,49,0.00,,,0.02,Wunderground v.1.15,2013-04-22 03:19:00,
2013-04-22 13:24:00,75.2,54.7,29.76,WNW,285,5.0,6.0,49,0.00,,,0.02,Wunderground v.1.15,2013-04-22 03:24:00,
2013-04-22 13:29:00,75.3,54.3,29.75,North,360,0.0,6.0,48,0.00,,,0.02,Wunderground v.1.15,2013-04-22 03:29:00,
2013-04-22 13:34:00,75.5,53.9,29.75,NW,317,4.0,7.0,47,0.00,,,0.02,Wunderground v.1.15,2013-04-22 03:34:00,
2013-04-22 13:39:00,75.6,52.8,29.76,NW,305,2.0,7.0,45,0.00,,,0.02,Wunderground v.1.15,2013-04-22 03:39:00,
2013-04-22 13:44:00,75.7,52.2,29.75,WNW,297,1.0,8.0,44,0.00,,,0.02,Wunderground v.1.15,2013-04-22 03:44:00,
2013-04-22 13:49:00,76.1,53.2,29.75,West,266,3.0,8.0,45,0.00,,,0.02,Wunderground v.1.15,2013-04-22 03:49:00,
2013-04-22 13:54:00,76.1,52.6,29.75,WNW,288,1.0,5.0,44,0.00,,,0.02,Wunderground v.1.15,2013-04-22 03:54:00,
2013-04-22 13:59:00,76.1,52.6,29.75,WNW,288,0.0,8.0,44,0.00,,,0.02,Wunderground v.1.15,2013-04-22 03:59:00,
2013-04-22 14:01:00,76.1,53.8,29.75,NW,319,2.0,2.0,46,0.00,,,0.02,Wunderground v.1.15,2013-04-22 04:01:00,
2013-04-22 14:06:00,76.2,53.9,29.75,NW,318,2.0,3.0,46,0.00,,,0.02,Wunderground v.1.15,2013-04-22 04:06:00,
2013-04-22 14:11:00,76.3,53.4,29.75,SSE,147,0.0,1.0,45,0.00,,,0.02,Wunderground v.1.15,2013-04-22 04:11:00,
2013-04-22 14:16:00,75.4,51.3,29.75,West,267,2.0,6.0,43,0.00,,,0.02,Wunderground v.1.15,2013-04-22 04:16:00,
2013-04-22 14:21:00,75.7,51.6,29.75,NW,311,1.0,4.0,43,0.00,,,0.02,Wunderground v.1.15,2013-04-22 04:21:00,
2013-04-22 14:27:00,75.9,51.8,29.75,SE,133,2.0,7.0,43,0.00,,,0.02,Wunderground v.1.15,2013-04-22 04:27:00,
2013-04-22 14:32:00,75.5,52.1,29.75,WNW,283,1.0,4.0,44,0.00,,,0.02,Wunderground v.1.15,2013-04-22 04:32:00,
2013-04-22 14:37:00,76.0,52.5,29.75,WNW,285,1.0,4.0,44,0.00,,,0.02,Wunderground v.1.15,2013-04-22 04:37:00,
2013-04-22 14:42:00,76.3,51.5,29.75,WNW,290,4.0,4.0,42,0.00,,,0.02,Wunderground v.1.15,2013-04-22 04:42:00,
2013-04-22 14:47:00,76.7,51.9,29.75,NW,318,2.0,7.0,42,0.00,,,0.02,Wunderground v.1.15,2013-04-22 04:47:00,
2013-04-22 14:52:00,76.7,51.2,29.75,WNW,298,2.0,5.0,41,0.00,,,0.02,Wunderground v.1.15,2013-04-22 04:52:00,
2013-04-22 14:57:00,76.8,52.0,29.75,West,273,5.0,6.0,42,0.00,,,0.02,Wunderground v.1.15,2013-04-22 04:57:00,
2013-04-22 15:02:00,76.9,51.4,29.75,WNW,294,3.0,5.0,41,0.00,,,0.02,Wunderground v.1.15,2013-04-22 05:02:00,
2013-04-22 15:07:00,77.0,51.5,29.75,West,277,5.0,5.0,41,0.00,,,0.02,Wunderground v.1.15,2013-04-22 05:07:00,
2013-04-22 15:12:00,77.2,52.3,29.75,South,184,1.0,3.0,42,0.00,,,0.02,Wunderground v.1.15,2013-04-22 05:12:00,
2013-04-22 15:17:00,77.0,51.5,29.75,WNW,285,1.0,6.0,41,0.00,,,0.02,Wunderground v.1.15,2013-04-22 05:17:00,
2013-04-22 15:22:00,76.5,50.4,29.75,WNW,283,2.0,3.0,40,0.00,,,0.02,Wunderground v.1.15,2013-04-22 05:22:00,
2013-04-22 15:27:00,76.7,51.2,29.75,NW,308,1.0,5.0,41,0.00,,,0.02,Wunderground v.1.15,2013-04-22 05:27:00,
2013-04-22 15:32:00,77.4,50.5,29.75,West,281,2.0,6.0,39,0.00,,,0.02,Wunderground v.1.15,2013-04-22 05:32:00,
2013-04-22 15:37:00,77.5,51.3,29.75,WNW,285,3.0,6.0,40,0.00,,,0.02,Wunderground v.1.15,2013-04-22 05:37:00,
2013-04-22 15:43:00,77.3,49.7,29.75,West,279,3.0,5.0,38,0.00,,,0.02,Wunderground v.1.15,2013-04-22 05:43:00,
2013-04-22 15:48:00,76.9,49.4,29.75,NW,305,3.0,6.0,38,0.00,,,0.02,Wunderground v.1.15,2013-04-22 05:48:00,
2013-04-22 15:53:00,76.7,49.9,29.75,West,276,2.0,2.0,39,0.00,,,0.02,Wunderground v.1.15,2013-04-22 05:53:00,
2013-04-22 15:58:00,76.8,50.0,29.75,NW,325,0.0,3.0,39,0.00,,,0.02,Wunderground v.1.15,2013-04-22 05:58:00,
2013-04-22 16:03:00,77.0,50.1,29.75,WSW,252,2.0,3.0,39,0.00,,,0.02,Wunderground v.1.15,2013-04-22 06:03:00,
2013-04-22 16:08:00,77.1,50.9,29.75,West,260,2.0,5.0,40,0.00,,,0.02,Wunderground v.1.15,2013-04-22 06:08:00,
2013-04-22 16:13:00,77.1,50.2,29.75,West,281,1.0,4.0,39,0.00,,,0.02,Wunderground v.1.15,2013-04-22 06:13:00,
2013-04-22 16:18:00,76.8,50.6,29.75,WNW,285,0.0,4.0,40,0.00,,,0.02,Wunderground v.1.15,2013-04-22 06:18:00,
2013-04-22 16:23:00,76.5,51.0,29.75,WNW,298,1.0,3.0,41,0.00,,,0.02,Wunderground v.1.15,2013-04-22 06:23:00,
2013-04-22 16:28:00,76.0,50.6,29.76,WNW,287,1.0,4.0,41,0.00,,,0.02,Wunderground v.1.15,2013-04-22 06:28:00,
2013-04-22 16:33:00,75.7,51.0,29.76,NW,314,0.0,2.0,42,0.00,,,0.02,Wunderground v.1.15,2013-04-22 06:33:00,
2013-04-22 16:38:00,75.2,50.5,29.76,WNW,293,1.0,4.0,42,0.00,,,0.02,Wunderground v.1.15,2013-04-22 06:38:00,
2013-04-22 16:43:00,74.3,50.4,29.76,WNW,292,2.0,3.0,43,0.00,,,0.02,Wunderground v.1.15,2013-04-22 06:43:00,
2013-04-22 16:48:00,73.3,50.7,29.76,NW,321,0.0,3.0,45,0.00,,,0.02,Wunderground v.1.15,2013-04-22 06:48:00,
2013-04-22 16:53:00,72.4,50.4,29.77,WNW,296,0.0,1.0,46,0.00,,,0.02,Wunderground v.1.15,2013-04-22 06:53:00,
2013-04-22 16:58:00,71.8,50.5,29.77,WNW,295,0.0,1.0,47,0.00,,,0.02,Wunderground v.1.15,2013-04-22 06:58:00,
2013-04-22 17:03:00,70.9,52.4,29.77,WNW,295,0.0,0.0,52,0.00,,,0.02,Wunderground v.1.15,2013-04-22 07:03:00,
2013-04-22 17:08:00,69.9,51.5,29.77,WNW,295,0.0,0.0,52,0.00,,,0.02,Wunderground v.1.15,2013-04-22 07:08:00,
2013-04-22 17:13:00,68.9,51.1,29.77,WNW,295,0.0,0.0,53,0.00,,,0.02,Wunderground v.1.15,2013-04-22 07:13:00,
2013-04-22 17:18:00,68.0,51.2,29.78,WNW,296,0.0,0.0,55,0.00,,,0.02,Wunderground v.1.15,2013-04-22 07:18:00,
2013-04-22 17:23:00,66.9,51.6,29.78,WNW,296,0.0,0.0,58,0.00,,,0.02,Wunderground v.1.15,2013-04-22 07:23:00,
2013-04-22 17:28:00,65.8,52.0,29.78,WNW,295,0.0,0.0,61,0.00,,,0.02,Wunderground v.1.15,2013-04-22 07:28:00,
2013-04-22 17:33:00,64.8,51.5,29.78,WNW,296,0.0,0.0,62,0.00,,,0.02,Wunderground v.1.15,2013-04-22 07:33:00,
2013-04-22 17:38:00,63.9,51.1,29.79,WNW,295,0.0,0.0,63,0.00,,,0.02,Wunderground v.1.15,2013-04-22 07:38:00,
2013-04-22 17:43:00,63.1,51.1,29.79,WNW,296,0.0,0.0,65,0.00,,,0.02,Wunderground v.1.15,2013-04-22 07:43:00,
2013-04-22 17:48:00,63.1,51.6,29.79,WNW,295,0.0,0.0,66,0.00,,,0.02,Wunderground v.1.15,2013-04-22 07:48:00,
2013-04-22 17:53:00,62.9,51.8,29.80,WNW,295,0.0,0.0,67,0.00,,,0.02,Wunderground v.1.15,2013-04-22 07:53:00,
2013-04-22 17:58:00,62.6,51.9,29.80,WNW,296,0.0,0.0,68,0.00,,,0.02,Wunderground v.1.15,2013-04-22 07:58:00,
2013-04-22 18:04:00,62.2,51.9,29.80,WNW,295,0.0,0.0,69,0.00,,,0.02,Wunderground v.1.15,2013-04-22 08:04:00,
2013-04-22 18:09:00,61.7,52.2,29.81,WNW,296,0.0,0.0,71,0.00,,,0.02,Wunderground v.1.15,2013-04-22 08:09:00,
2013-04-22 18:14:00,61.4,52.3,29.81,WNW,295,0.0,0.0,72,0.00,,,0.02,Wunderground v.1.15,2013-04-22 08:14:00,
2013-04-22 18:19:00,61.0,52.3,29.81,WNW,296,0.0,0.0,73,0.00,,,0.02,Wunderground v.1.15,2013-04-22 08:19:00,
2013-04-22 18:24:00,60.6,52.3,29.81,WNW,295,0.0,0.0,74,0.00,,,0.02,Wunderground v.1.15,2013-04-22 08:24:00,
2013-04-22 18:29:00,60.3,53.1,29.81,WNW,295,0.0,0.0,77,0.00,,,0.02,Wunderground v.1.15,2013-04-22 08:29:00,
2013-04-22 18:34:00,60.2,53.0,29.82,WNW,295,0.0,0.0,77,0.00,,,0.02,Wunderground v.1.15,2013-04-22 08:34:00,
2013-04-22 18:39:00,59.9,52.7,29.82,WNW,295,0.0,0.0,77,0.00,,,0.02,Wunderground v.1.15,2013-04-22 08:39:00,
2013-04-22 18:44:00,59.3,51.7,29.82,WNW,295,0.0,0.0,76,0.00,,,0.02,Wunderground v.1.15,2013-04-22 08:44:00,
2013-04-22 18:49:00,58.7,52.2,29.82,WNW,295,0.0,0.0,79,0.00,,,0.02,Wunderground v.1.15,2013-04-22 08:49:00,
2013-04-22 18:54:00,58.4,52.9,29.83,WNW,296,0.0,0.0,82,0.00,,,0.02,Wunderground v.1.15,2013-04-22 08:54:00,
2013-04-22 18:59:00,58.1,53.0,29.83,WNW,296,0.0,0.0,83,0.00,,,0.02,Wunderground v.1.15,2013-04-22 08:59:00,
2013-04-22 19:04:00,57.9,52.8,29.83,WNW,295,0.0,0.0,83,0.00,,,0.02,Wunderground v.1.15,2013-04-22 09:04:00,
2013-04-22 19:09:00,57.5,52.4,29.83,WNW,295,0.0,0.0,83,0.00,,,0.02,Wunderground v.1.15,2013-04-22 09:09:00,
2013-04-22 19:14:00,57.1,52.3,29.83,WNW,296,0.0,0.0,84,0.00,,,0.02,Wunderground v.1.15,2013-04-22 09:14:00,
2013-04-22 19:19:00,56.8,52.3,29.83,WNW,295,0.0,0.0,85,0.00,,,0.02,Wunderground v.1.15,2013-04-22 09:19:00,
2013-04-22 19:24:00,56.7,52.6,29.83,WNW,296,0.0,0.0,86,0.00,,,0.02,Wunderground v.1.15,2013-04-22 09:24:00,
2013-04-22 19:29:00,56.3,52.2,29.84,WNW,295,0.0,0.0,86,0.00,,,0.02,Wunderground v.1.15,2013-04-22 09:29:00,
2013-04-22 19:34:00,55.8,51.7,29.84,WNW,296,0.0,0.0,86,0.00,,,0.02,Wunderground v.1.15,2013-04-22 09:34:00,
2013-04-22 19:39:00,55.6,52.1,29.84,WNW,296,0.0,0.0,88,0.00,,,0.02,Wunderground v.1.15,2013-04-22 09:39:00,
2013-04-22 19:44:00,55.7,52.2,29.84,WNW,296,0.0,0.0,88,0.00,,,0.02,Wunderground v.1.15,2013-04-22 09:44:00,
2013-04-22 19:49:00,55.4,51.9,29.84,WNW,295,0.0,0.0,88,0.00,,,0.02,Wunderground v.1.15,2013-04-22 09:49:00,
2013-04-22 19:54:00,55.4,52.2,29.84,WNW,296,0.0,0.0,89,0.00,,,0.02,Wunderground v.1.15,2013-04-22 09:54:00,
2013-04-22 19:59:00,55.5,52.3,29.84,WNW,295,0.0,0.0,89,0.00,,,0.02,Wunderground v.1.15,2013-04-22 09:59:00,
2013-04-22 20:04:00,55.6,52.1,29.85,WNW,296,0.0,0.0,88,0.00,,,0.02,Wunderground v.1.15,2013-04-22 10:04:00,
2013-04-22 20:09:00,55.5,51.7,29.85,WNW,295,0.0,0.0,87,0.00,,,0.02,Wunderground v.1.15,2013-04-22 10:09:00,
2013-04-22 20:14:00,55.3,51.8,29.85,WNW,295,0.0,0.0,88,0.00,,,0.02,Wunderground v.1.15,2013-04-22 10:14:00,
2013-04-22 20:19:00,55.4,51.9,29.85,WNW,295,0.0,0.0,88,0.00,,,0.02,Wunderground v.1.15,2013-04-22 10:19:00,
2013-04-22 20:24:00,55.3,51.8,29.85,WNW,295,0.0,0.0,88,0.00,,,0.02,Wunderground v.1.15,2013-04-22 10:24:00,
2013-04-22 20:29:00,55.1,51.6,29.86,WNW,296,0.0,0.0,88,0.00,,,0.02,Wunderground v.1.15,2013-04-22 10:29:00,
2013-04-22 20:34:00,54.8,51.3,29.86,WNW,295,0.0,0.0,88,0.00,,,0.02,Wunderground v.1.15,2013-04-22 10:34:00,
2013-04-22 20:39:00,54.5,51.0,29.86,WNW,295,0.0,0.0,88,0.00,,,0.02,Wunderground v.1.15,2013-04-22 10:39:00,
2013-04-22 20:44:00,54.2,51.0,29.86,WNW,296,0.0,0.0,89,0.00,,,0.02,Wunderground v.1.15,2013-04-22 10:44:00,
2013-04-22 20:49:00,53.9,50.7,29.86,WNW,296,0.0,0.0,89,0.00,,,0.02,Wunderground v.1.15,2013-04-22 10:49:00,
2013-04-22 20:54:00,53.5,50.3,29.86,WNW,295,0.0,0.0,89,0.00,,,0.02,Wunderground v.1.15,2013-04-22 10:54:00,
2013-04-22 20:59:00,53.0,49.8,29.86,WNW,295,0.0,0.0,89,0.00,,,0.02,Wunderground v.1.15,2013-04-22 10:59:00,
2013-04-22 21:04:00,52.6,49.4,29.86,WNW,296,0.0,0.0,89,0.00,,,0.02,Wunderground v.1.15,2013-04-22 11:04:00,
2013-04-22 21:09:00,52.7,50.1,29.87,WNW,295,0.0,0.0,91,0.00,,,0.02,Wunderground v.1.15,2013-04-22 11:09:00,
2013-04-22 21:14:00,52.8,50.2,29.87,WNW,296,0.0,0.0,91,0.00,,,0.02,Wunderground v.1.15,2013-04-22 11:14:00,
2013-04-22 21:19:00,52.7,50.1,29.87,WNW,296,0.0,0.0,91,0.00,,,0.02,Wunderground v.1.15,2013-04-22 11:19:00,
2013-04-22 21:24:00,52.5,49.9,29.87,WNW,295,0.0,0.0,91,0.00,,,0.02,Wunderground v.1.15,2013-04-22 11:24:00,
2013-04-22 21:29:00,52.1,49.6,29.87,WNW,295,0.0,0.0,91,0.00,,,0.02,Wunderground v.1.15,2013-04-22 11:29:00,
2013-04-22 21:34:00,51.9,49.4,29.87,WNW,296,0.0,0.0,91,0.00,,,0.02,Wunderground v.1.15,2013-04-22 11:34:00,
2013-04-22 21:39:00,51.6,49.1,29.87,WNW,295,0.0,0.0,91,0.00,,,0.02,Wunderground v.1.15,2013-04-22 11:39:00,
2013-04-22 21:44:00,51.2,48.7,29.87,WNW,295,0.0,0.0,91,0.00,,,0.02,Wunderground v.1.15,2013-04-22 11:44:00,
2013-04-22 21:50:00,51.2,49.0,29.87,WNW,295,0.0,0.0,92,0.00,,,0.02,Wunderground v.1.15,2013-04-22 11:50:00,
2013-04-22 21:55:00,51.5,49.3,29.87,WNW,295,0.0,0.0,92,0.00,,,0.02,Wunderground v.1.15,2013-04-22 11:55:00,
2013-04-22 22:00:00,51.4,49.2,29.87,WNW,296,0.0,0.0,92,0.00,,,0.02,Wunderground v.1.15,2013-04-22 12:00:00,
2013-04-22 22:05:00,51.5,49.5,29.87,WNW,296,0.0,0.0,93,0.00,,,0.02,Wunderground v.1.15,2013-04-22 12:05:00,
2013-04-22 22:10:00,51.4,49.4,29.87,WNW,295,0.0,0.0,93,0.00,,,0.02,Wunderground v.1.15,2013-04-22 12:10:00,
2013-04-22 22:15:00,51.3,49.3,29.87,WNW,296,0.0,0.0,93,0.00,,,0.02,Wunderground v.1.15,2013-04-22 12:15:00,
2013-04-22 22:20:00,51.2,49.0,29.87,WNW,295,0.0,0.0,92,0.00,,,0.02,Wunderground v.1.15,2013-04-22 12:20:00,
2013-04-22 22:25:00,51.1,49.1,29.87,WNW,296,0.0,0.0,93,0.00,,,0.02,Wunderground v.1.15,2013-04-22 12:25:00,
2013-04-22 22:30:00,51.1,49.1,29.87,WNW,296,0.0,0.0,93,0.00,,,0.02,Wunderground v.1.15,2013-04-22 12:30:00,
2013-04-22 22:35:00,50.9,48.9,29.87,WNW,295,0.0,0.0,93,0.00,,,0.02,Wunderground v.1.15,2013-04-22 12:35:00,
2013-04-22 22:40:00,50.6,48.4,29.87,WNW,296,0.0,0.0,92,0.00,,,0.02,Wunderground v.1.15,2013-04-22 12:40:00,
2013-04-22 22:45:00,50.5,48.6,29.87,WNW,296,0.0,0.0,93,0.00,,,0.02,Wunderground v.1.15,2013-04-22 12:45:00,
2013-04-22 22:50:00,50.6,48.7,29.87,WNW,296,0.0,0.0,93,0.00,,,0.02,Wunderground v.1.15,2013-04-22 12:50:00,
2013-04-22 22:55:00,50.6,48.7,29.87,WNW,296,0.0,0.0,93,0.00,,,0.02,Wunderground v.1.15,2013-04-22 12:55:00,
2013-04-22 23:00:00,50.6,48.7,29.87,WNW,295,0.0,0.0,93,0.00,,,0.02,Wunderground v.1.15,2013-04-22 13:00:00,
2013-04-22 23:05:00,50.6,48.7,29.87,WNW,295,0.0,0.0,93,0.00,,,0.00,Wunderground v.1.15,2013-04-22 13:05:00,
2013-04-22 23:10:00,50.4,48.5,29.88,WNW,296,0.0,0.0,93,0.00,,,0.00,Wunderground v.1.15,2013-04-22 13:10:00,
2013-04-22 23:15:00,50.3,48.4,29.88,WNW,295,0.0,0.0,93,0.00,,,0.00,Wunderground v.1.15,2013-04-22 13:15:00,
2013-04-22 23:20:00,50.3,48.4,29.88,WNW,295,0.0,0.0,93,0.00,,,0.00,Wunderground v.1.15,2013-04-22 13:20:00,
2013-04-22 23:25:00,50.1,48.2,29.88,WNW,296,0.0,0.0,93,0.00,,,0.00,Wunderground v.1.15,2013-04-22 13:25:00,
2013-04-22 23:30:00,50.1,48.4,29.88,WNW,295,0.0,0.0,94,0.00,,,0.00,Wunderground v.1.15,2013-04-22 13:30:00,
2013-04-22 23:35:00,50.4,48.7,29.88,NW,313,0.0,0.0,94,0.00,,,0.00,Wunderground v.1.15,2013-04-22 13:35:00,
2013-04-22 23:40:00,50.5,48.8,29.88,NW,313,0.0,0.0,94,0.00,,,0.00,Wunderground v.1.15,2013-04-22 13:40:00,
2013-04-22 23:45:00,50.3,48.4,29.88,NW,312,0.0,0.0,93,0.00,,,0.00,Wunderground v.1.15,2013-04-22 13:45:00,
2013-04-22 23:50:00,49.9,48.0,29.88,NW,312,0.0,0.0,93,0.00,,,0.00,Wunderground v.1.15,2013-04-22 13:50:00,
2013-04-22 23:55:00,49.5,47.6,29.88,NW,312,0.0,0.0,93,0.00,,,0.00,Wunderground v.1.15,2013-04-22 13:55:00,